[[{"header":{"parameterUnit":"m.s-1","parameterCategory":1,"la1":30.2991,"la2":30.254,"lo1":-89.0895,"lo2":-89.0444,"dy":0.0017,"dx":0.0017,"nx":28,"ny":28,"refTime":"2025-03-31T09:00:00:Z","depth":0,"parameterNumber":2,"parameterNumberName":"U-component_of_WINDS"},"data":[0,0,0,0,0,0,0,0,0,0,0,0,0,0,0,0,0,0,0,0,0,0,0,0,0,0,0,0,0,0,0,0,0,0,0,0,0,0,0,0,0,0,0,0,0,0,0,0,0,0,0,0,0,0,0,0,0,0,-0.8912,-0.8912,0,-0.8871,-0.8871,-0.887,-0.8832,-0.8831,-0.8831,-0.883,-0.8789,-0.8789,-0.8788,0,0,0,0,0,0,0,0,0,0,0,0,0,-0.8958,-0.8958,-0.8912,-0.8912,-0.8911,-0.8871,-0.8871,-0.887,-0.8832,-0.8831,-0.8831,-0.883,-0.879,-0.8789,-0.8788,0,0,0,0,0,0,0,0,0,0,0,0,0,-0.893,-0.8958,-0.8912,-0.8887,-0.8885,-0.8871,-0.8871,-0.887,-0.8832,-0.8831,-0.8831,-0.883,-0.879,-0.8789,-0.8788,-0.8796,0,0,-0.8785,-0.8784,0,0,0,0,0,0,0,0,-0.8932,-0.8928,-0.8891,-0.8889,-0.8886,-0.8856,-0.8872,-0.8845,-0.8832,-0.8852,-0.883,-0.883,-0.8812,-0.8809,-0.8803,-0.8794,-0.8793,-0.8785,-0.8784,-0.8784,-0.8784,0,0,0,0,0,0,0,-0.8934,-0.893,-0.8896,-0.8891,-0.8888,-0.8878,-0.8874,-0.8867,-0.8837,-0.885,-0.8847,-0.8843,-0.881,-0.8804,-0.8802,-0.8792,-0.8785,-0.8784,-0.8783,-0.8783,-0.8789,-0.8789,0,0,0,0,0,0,-0.8939,-0.8932,-0.8897,-0.8895,-0.8907,-0.8878,-0.8873,-0.8866,-0.8837,-0.8831,-0.8844,-0.8841,-0.8806,-0.8803,-0.88,-0.8808,-0.8784,-0.8783,-0.8782,-0.8788,-0.8789,-0.879,0,0,0,0,0,0,-0.894,-0.8937,-0.8899,-0.8912,-0.8907,-0.8878,-0.8871,-0.8866,-0.8859,-0.8832,-0.8826,-0.8843,-0.8806,-0.8802,-0.8798,-0.8806,-0.8782,-0.8782,-0.8787,-0.8788,-0.8789,-0.8824,0,0,0,0,0,0,-0.8942,-0.8937,-0.894,-0.8913,-0.8906,-0.8897,-0.8872,-0.8866,-0.8858,-0.8854,-0.8829,-0.8824,-0.8805,-0.8799,-0.8797,-0.8804,-0.8781,-0.8786,-0.8788,-0.8789,-0.8822,-0.8826,-0.883,0,0,0,0,0,-0.8944,-0.8951,-0.894,-0.8936,-0.8909,-0.8897,-0.8893,-0.887,-0.8859,-0.8861,-0.8843,-0.8825,-0.8806,-0.8799,-0.8796,-0.8804,-0.8786,-0.8787,-0.8789,-0.882,-0.8825,-0.883,0,0,0,0,0,0,-0.898,-0.8947,-0.8934,-0.8933,-0.8918,-0.8891,-0.8893,-0.8877,-0.8865,-0.8862,-0.8834,-0.8829,-0.8828,-0.8815,-0.8809,-0.881,-0.8793,-0.8794,-0.8818,-0.8823,-0.8827,-0.8829,-0.878,0,0,0,0,0,-0.8988,-0.8981,-0.8953,-0.8954,-0.8948,-0.8922,-0.8916,-0.8899,-0.8883,-0.8876,-0.8858,-0.8843,-0.8833,-0.8828,-0.8817,-0.8821,-0.8814,-0.8824,-0.8828,-0.8832,-0.8832,-0.8833,-0.8837,-0.8795,-0.8795,-0.8795,0,0,-0.9004,-0.8985,-0.8982,-0.8961,-0.8948,-0.8941,-0.8917,-0.8911,-0.8906,-0.8875,-0.887,-0.8857,-0.8838,-0.8838,-0.8837,-0.8827,-0.8843,-0.8834,-0.8837,-0.8836,-0.8835,-0.8839,-0.8843,-0.8796,-0.8796,-0.8796,0,0,-0.903,-0.9015,-0.9015,-0.9002,-0.8982,-0.8965,-0.8965,-0.894,-0.8929,-0.8924,-0.8901,-0.8895,-0.888,-0.8867,-0.8859,-0.8882,-0.8864,-0.8879,-0.8899,-0.89,-0.8903,-0.8906,-0.8914,-0.8917,-0.888,-0.8881,-0.8881,0,-0.9052,-0.9041,-0.9017,-0.9012,-0.9004,-0.8977,-0.8976,-0.8965,-0.8943,-0.8938,-0.8928,-0.8908,-0.8893,-0.889,-0.8895,-0.889,-0.8889,-0.8881,-0.8905,-0.8907,-0.891,-0.8917,-0.892,-0.8882,-0.8882,-0.8882,-0.8882,0,-0.907,-0.9063,-0.9065,-0.9044,-0.9036,-0.9034,-0.901,-0.9005,-0.899,-0.8974,-0.8969,-0.8951,-0.8936,-0.8935,-0.892,-0.8929,-0.8924,-0.891,-0.8892,-0.8916,-0.8922,-0.8925,-0.8885,-0.8884,-0.8884,-0.8883,0,0,-0.9115,-0.9082,-0.9083,-0.9073,-0.905,-0.9044,-0.9041,-0.9027,-0.9023,-0.9009,-0.9006,-0.8994,-0.8981,-0.8972,-0.8955,-0.8957,-0.8975,-0.8942,-0.8941,-0.8948,-0.8984,-0.8994,-0.8998,-0.8964,-0.8965,-0.8965,-0.8986,0,-0.9137,-0.9129,-0.9108,-0.9107,-0.91,-0.9075,-0.9072,-0.9058,-0.9043,-0.9036,-0.902,-0.9012,-0.8996,-0.899,-0.899,-0.8973,-0.8982,-0.8971,-0.8961,-0.8961,-0.8965,-0.9001,-0.9011,-0.9031,-0.8988,-0.8988,-0.8988,0,-0.916,-0.9147,-0.9146,-0.9123,-0.9119,-0.9117,-0.9103,-0.9096,-0.908,-0.9069,-0.9059,-0.9041,-0.9037,-0.9022,-0.9016,-0.9009,-0.9004,-0.8995,-0.8995,-0.8993,-0.8975,-0.8998,-0.9037,-0.904,-0.8992,-0.8992,-0.8992,0,-0.9193,-0.9176,-0.9172,-0.9165,-0.9138,-0.9138,-0.9127,-0.9109,-0.9103,-0.909,-0.9086,-0.9074,-0.9067,-0.9058,-0.9037,-0.9028,-0.9034,-0.9016,-0.9025,-0.9025,-0.9026,-0.9026,-0.9064,-0.9025,-0.9025,-0.9025,-0.9024,0,-0.9218,-0.9218,-0.9187,-0.9185,-0.9184,-0.916,-0.916,-0.9147,-0.9132,-0.9127,-0.9105,-0.9101,-0.9075,-0.9068,-0.9053,-0.905,-0.9047,-0.9039,-0.9034,-0.904,-0.9041,-0.9035,-0.9033,-0.9025,-0.9025,-0.9025,-0.9025,0,-0.9254,-0.9233,-0.9228,-0.9204,-0.9197,-0.9198,-0.9177,-0.9175,-0.9159,-0.9154,-0.9151,-0.9127,-0.9118,-0.9097,-0.9083,-0.9072,-0.9073,-0.9066,-0.9079,-0.9076,-0.9085,-0.9084,-0.9119,-0.9123,-0.9083,-0.9083,-0.9084,0,-0.9271,-0.927,-0.9246,-0.9241,-0.9231,-0.9223,-0.9216,-0.9193,-0.9187,-0.9168,-0.9168,-0.9157,-0.9147,-0.9134,-0.9116,-0.9105,-0.9096,-0.911,-0.9094,-0.91,-0.9096,-0.9095,-0.9095,-0.9112,-0.9113,-0.9114,-0.9114,0,-0.9303,-0.9293,-0.9283,-0.927,-0.9263,-0.9251,-0.9239,-0.9237,-0.9211,-0.9205,-0.9195,-0.9188,-0.9173,-0.9163,-0.9149,-0.9138,-0.9122,-0.9119,-0.912,-0.9125,-0.9132,-0.9128,-0.9087,-0.9118,-0.9118,-0.9117,-0.9117,-0.9117,-0.9329,-0.9327,-0.931,-0.93,-0.9288,-0.9278,-0.9274,-0.9259,-0.925,-0.9236,-0.9224,-0.9215,-0.92,-0.9179,-0.917,-0.9163,-0.9155,-0.9157,-0.9157,-0.9158,-0.916,-0.9135,-0.9161,-0.9161,-0.9161,-0.916,-0.916,0,-0.9359,-0.9347,-0.9338,-0.9322,-0.9314,-0.93,-0.9286,-0.9281,-0.9274,-0.926,-0.9251,-0.924,-0.9231,-0.9212,-0.9201,-0.9199,-0.9191,-0.9197,-0.9196,-0.9193,-0.9168,-0.9168,-0.9203,-0.9203,-0.9203,-0.9203,-0.9203,-0.9203,-0.9373,-0.937,-0.9358,-0.9348,-0.9336,-0.9328,-0.9321,-0.9311,-0.93,-0.9289,-0.9281,-0.9269,-0.9254,-0.9241,-0.9231,-0.9226,-0.9223,-0.923,-0.9223,-0.9199,-0.9195,-0.9191,-0.9191,-0.923,-0.923,-0.9248,-0.9248,-0.9249]},{"header":{"parameterUnit":"m.s-1","parameterCategory":1,"la1":30.2991,"la2":30.254,"lo1":-89.0895,"lo2":-89.0444,"dy":0.0017,"dx":0.0017,"nx":28,"ny":28,"refTime":"2025-03-31T09:00:00:Z","depth":0,"parameterNumber":3,"parameterNumberName":"V-component_of_WINDS"},"data":[0,0,0,0,0,0,0,0,0,0,0,0,0,0,0,0,0,0,0,0,0,0,0,0,0,0,0,0,0,0,0,0,0,0,0,0,0,0,0,0,0,0,0,0,0,0,0,0,0,0,0,0,0,0,0,0,0,0,0.6653,0.6653,0,0.6698,0.6698,0.6699,0.6729,0.673,0.673,0.673,0.6775,0.6776,0.6777,0,0,0,0,0,0,0,0,0,0,0,0,0,0.6593,0.6594,0.6653,0.6653,0.6654,0.6698,0.6698,0.6699,0.6729,0.673,0.673,0.673,0.6775,0.6776,0.6777,0,0,0,0,0,0,0,0,0,0,0,0,0,0.6627,0.6594,0.6653,0.6674,0.6677,0.6698,0.6698,0.6699,0.6729,0.673,0.673,0.673,0.6774,0.6776,0.6777,0.6779,0,0,0.6782,0.6782,0,0,0,0,0,0,0,0,0.6625,0.6629,0.6671,0.6673,0.6676,0.6708,0.6694,0.6726,0.6729,0.6709,0.673,0.673,0.6752,0.6756,0.6763,0.6782,0.6784,0.6782,0.6783,0.6783,0.6784,0,0,0,0,0,0,0,0.6622,0.6627,0.6671,0.6671,0.6674,0.6682,0.6687,0.67,0.6728,0.6711,0.6713,0.6718,0.6754,0.6762,0.6765,0.6784,0.6782,0.6783,0.6784,0.6785,0.6808,0.6808,0,0,0,0,0,0,0.6617,0.6625,0.6669,0.6672,0.665,0.6683,0.6688,0.6697,0.6728,0.6733,0.6718,0.672,0.6759,0.6763,0.6766,0.6772,0.6783,0.6785,0.6786,0.6808,0.6808,0.6808,0,0,0,0,0,0,0.6615,0.662,0.6667,0.6649,0.6656,0.6683,0.6693,0.6698,0.6706,0.6734,0.6739,0.6721,0.676,0.6764,0.6776,0.6774,0.6785,0.6787,0.6809,0.6808,0.6808,0.6783,0,0,0,0,0,0,0.6613,0.662,0.6621,0.6649,0.6656,0.6676,0.6693,0.6699,0.6709,0.6711,0.6738,0.6742,0.676,0.6774,0.6778,0.6776,0.6788,0.6809,0.6809,0.6808,0.6784,0.6782,0.678,0,0,0,0,0,0.6611,0.6611,0.6621,0.6626,0.6658,0.6676,0.6681,0.6701,0.6708,0.671,0.6728,0.6742,0.6774,0.6775,0.678,0.6778,0.6809,0.6809,0.6808,0.6785,0.6782,0.678,0,0,0,0,0,0,0.6581,0.6615,0.6626,0.6635,0.6653,0.6681,0.6684,0.6697,0.6713,0.6714,0.6739,0.6745,0.6755,0.6768,0.6769,0.6783,0.6793,0.6794,0.6774,0.6772,0.677,0.6766,0.6789,0,0,0,0,0,0.6576,0.6588,0.6617,0.6622,0.663,0.6656,0.6664,0.6679,0.6698,0.6705,0.6724,0.6741,0.6756,0.6764,0.6779,0.6786,0.6793,0.6788,0.6786,0.6784,0.6784,0.679,0.6788,0.6806,0.6806,0.6806,0,0,0.6565,0.6585,0.659,0.6617,0.6632,0.6644,0.6661,0.6673,0.6682,0.6707,0.672,0.6734,0.6755,0.6766,0.6771,0.6777,0.678,0.6783,0.6781,0.6782,0.6789,0.6787,0.6786,0.6806,0.6806,0.6806,0,0,0.655,0.6566,0.6573,0.6589,0.6612,0.6629,0.663,0.6657,0.6668,0.6682,0.6701,0.6712,0.6736,0.6751,0.6761,0.6754,0.6768,0.6758,0.6747,0.6752,0.6751,0.675,0.6748,0.6747,0.6758,0.6758,0.6758,0,0.6533,0.6552,0.6575,0.6586,0.6597,0.6621,0.6628,0.6642,0.6668,0.6676,0.6682,0.6713,0.6729,0.6744,0.6742,0.675,0.6753,0.6755,0.6749,0.6748,0.6748,0.6746,0.6746,0.6757,0.6757,0.6757,0.6757,0,0.653,0.6543,0.6546,0.6572,0.6584,0.6592,0.6617,0.6626,0.664,0.6656,0.667,0.6691,0.671,0.6715,0.6728,0.6731,0.6735,0.6745,0.6755,0.6744,0.6744,0.6743,0.6755,0.6755,0.6756,0.6756,0,0,0.6498,0.6537,0.6538,0.6551,0.6579,0.6589,0.6599,0.6619,0.6627,0.6645,0.6654,0.6675,0.6685,0.6697,0.6712,0.6717,0.6711,0.6727,0.6728,0.6724,0.6717,0.671,0.6709,0.6721,0.6721,0.6721,0.6716,0,0.6488,0.6508,0.653,0.6543,0.6555,0.6579,0.6588,0.6606,0.6622,0.6635,0.6652,0.6667,0.6679,0.6686,0.6692,0.6711,0.671,0.6711,0.673,0.6731,0.6724,0.6708,0.67,0.6694,0.6716,0.6716,0.6715,0,0.6479,0.6497,0.6511,0.6539,0.6545,0.6553,0.6574,0.6586,0.6608,0.6619,0.6633,0.665,0.6662,0.6672,0.669,0.669,0.6699,0.671,0.671,0.6712,0.6722,0.6711,0.6693,0.6692,0.6715,0.6715,0.6715,0,0.6455,0.6482,0.6495,0.6505,0.6537,0.6543,0.6557,0.6579,0.659,0.6608,0.6615,0.6634,0.6644,0.6659,0.668,0.6685,0.6696,0.6707,0.6707,0.6706,0.6708,0.6707,0.6692,0.6713,0.6713,0.6713,0.6713,0,0.6442,0.645,0.6484,0.6492,0.6502,0.6527,0.6536,0.6552,0.6571,0.6583,0.6604,0.6614,0.6642,0.6655,0.6672,0.6685,0.669,0.6699,0.6704,0.6698,0.6696,0.6704,0.6705,0.6713,0.6713,0.6713,0.6713,0,0.6416,0.6439,0.6455,0.6485,0.6493,0.6499,0.6525,0.6534,0.6551,0.6565,0.657,0.6598,0.6615,0.6638,0.6662,0.6674,0.6685,0.6691,0.6677,0.668,0.6678,0.6678,0.6667,0.6667,0.6687,0.6687,0.6687,0,0.6406,0.6413,0.6445,0.6454,0.6468,0.6483,0.6494,0.6519,0.6531,0.6557,0.6562,0.6581,0.6598,0.6624,0.6646,0.6665,0.6673,0.6668,0.6676,0.667,0.6674,0.6673,0.6674,0.6666,0.6665,0.6665,0.6665,0,0.6387,0.6399,0.6415,0.6436,0.6449,0.6467,0.6485,0.6491,0.652,0.6532,0.655,0.6563,0.6589,0.6607,0.663,0.6644,0.6659,0.6662,0.6663,0.6657,0.6649,0.6654,0.6672,0.6662,0.6663,0.6663,0.6663,0.6663,0.637,0.6377,0.6401,0.6419,0.6436,0.6452,0.6462,0.6482,0.6497,0.652,0.6534,0.6552,0.6575,0.6606,0.662,0.6635,0.6641,0.6642,0.6642,0.6642,0.6641,0.6647,0.6639,0.6639,0.6639,0.6639,0.6639,0,0.6352,0.6369,0.6385,0.6411,0.6425,0.6439,0.646,0.6471,0.6486,0.6506,0.6523,0.6544,0.6563,0.6587,0.6608,0.6615,0.6622,0.6619,0.6619,0.6622,0.6634,0.6631,0.6613,0.6613,0.6613,0.6613,0.6613,0.6613,0.6345,0.6359,0.6373,0.6396,0.6413,0.6431,0.6442,0.6458,0.6474,0.6498,0.6514,0.6529,0.6551,0.6574,0.6592,0.6599,0.6605,0.66,0.6609,0.6619,0.6621,0.6624,0.6622,0.6601,0.6601,0.6597,0.6597,0.6597]}]]